Regional Weather Roundup
Issued by NWS

Home | Current Version | Previous Version | Graphics & Text | Print | Product List | Glossary On
Versions: 1 2 3 4 5 6 7 8 9 10 11 12 13 14 15 16 17 18 19 20 21 22 23 24 25 26 27 28 29 30 31 32 33 34 35 36 37 38 39 40 41 42 43 44 45 46 47 48 49 50
000
ASUS43 KMPX 252001
RWRMN
WEATHER ROUNDUP FOR MINNESOTA
NATIONAL WEATHER SERVICE TWIN CITIES/CHANHASSEN MN
200 PM CST THU DEC 25 2014


NOTE: "FAIR" INDICATES FEW OR NO CLOUDS BELOW 12,000 FEET WITH NO
SIGNIFICANT WEATHER AND/OR OBSTRUCTIONS TO VISIBILITY. N/A MEANS
CURRENT SKY AND/OR WEATHER CONDITIONS ARE NOT AVAILABLE.

MNZ060>063-068>070-252100-
   Twin Cities Metro

CITY           SKY/WX    TMP DP  RH WIND       PRES   REMARKS
TWIN CITIES    CLOUDY    34  28  79 S6        29.76R WCI  29
ST PAUL        CLOUDY    35  29  78 S6        29.77R WCI  30
CRYSTAL        LGT SNOW  34  31  88 CALM      29.75R VSB 3/4
BLAINE         LGT SNOW  34  34 100 CALM      29.75R VSB 1
LAKEVILLE        N/A     34  28  80 CALM      29.74S
EDEN PRAIRIE   CLOUDY    35  28  75 CALM      29.74R
SOUTH ST PAUL  CLOUDY    36  30  80 SE5       29.76R
LAKE ELMO      CLOUDY    34  32  93 S6        29.76R WCI  29
$$
MNZ001>005-007-008-013>017-022>024-027-028-252100-
   Northwest Minnesota

CITY           SKY/WX    TMP DP  RH WIND       PRES   REMARKS
BEMIDJI        CLOUDY    29  25  84 W8        29.73R WCI  21
HALLOCK          N/A     28  25  86 NW12      29.78R WCI  18
ROSEAU         CLOUDY    28  23  80 NW9       29.74R WCI  20
WARROAD        CLOUDY    28  23  80 NW9       29.73R WCI  20
THIEF RVR FALL CLOUDY    27  21  80 NW12      29.76R WCI  16
CROOKSTON      CLOUDY    28  23  80 N12G18    29.79R WCI  18
FOSSTON        CLOUDY    27  25  93 W6        29.75R WCI  20
DETROIT LAKES  CLOUDY    30  27  86 NW9       29.76R WCI  22
MOORHEAD       CLOUDY    30  28  93 NW8       29.79R WCI  23
PARK RAPIDS    CLOUDY    31  22  69 NW8       29.72R WCI  23
MAHNOMEN       CLOUDY    28  26  92 NW9       29.74R WCI  19
$$
MNZ006-009>011-018-025>026-252100-
   North Central Minnesota

CITY           SKY/WX    TMP DP  RH WIND       PRES   REMARKS
BAUDETTE       CLOUDY    28  22  78 NW8       29.71R WCI  20
FLAG ISLAND    CLOUDY    28  25  86 NW12      29.70R WCI  18
INTL FALLS     CLOUDY    31  25  78 W13       29.68R WCI  21
WASKISH        CLOUDY    30  27  86 CALM      29.72R
BIG FORK       FLURRIES  30  27  86 CALM      29.71R
LONGVILLE      CLOUDY    30  25  80 W3        29.72R
GRAND RAPIDS   CLOUDY    28  25  86 W6        29.71R WCI  22
CRANE LAKE     CLOUDY    30  27  86 CALM      29.70R
ORR            CLOUDY    30  21  69 W5        29.66R WCI  25
COOK           CLOUDY    30  27  86 W6        29.69R WCI  24
WALKER         CLOUDY    30  23  77 NW3       29.71R
$$
MNZ012-019>021-037-252100-
   Northeast Minnesota

CITY           SKY/WX    TMP DP  RH WIND       PRES   REMARKS
DULUTH         CLOUDY    32  26  78 W13       29.70R WCI  22
ELY            CLOUDY    30  27  86 W7        29.67R WCI  23
HIBBING        CLOUDY    32  24  72 W7        29.70R WCI  26
EVELETH        PTSUNNY   32  28  86 W8        29.70R WCI  25
DULUTH HARBOR  CLOUDY    34  30  86 CALM      29.75R
TWO HARBORS    CLOUDY    36  28  75 W8        29.70R
SILVER BAY     CLOUDY    34  27  75 SW5       29.69R WCI  30
GRAND MARAIS     N/A     35  28  75 W3        29.70R
G MARAIS ARPRT CLOUDY    28  25  86 W5        29.65R WCI  23
$$
MNZ029>031-032-039>041-046>048-054>057-064-252100-
   West Central Minnesota

CITY           SKY/WX    TMP DP  RH WIND       PRES   REMARKS
FERGUS FALLS   CLOUDY    28  27  93 NW9       29.79R WCI  20
WHEATON        CLOUDY    27  25  93 NW10      29.78S WCI  17
MORRIS         CLOUDY    28  27  93 N9        29.74S WCI  20
ALEXANDRIA     CLOUDY    30  27  88 N8        29.73R WCI  22
ELBOW LAKE     CLOUDY    28  26  90 N12       29.75R WCI  18
WADENA         CLOUDY    28  25  86 N5        29.73R WCI  23
GLENWOOD       CLOUDY    30  28  93 NW6       29.73R WCI  24
APPLETON       CLOUDY    32  28  86 N10       29.74S WCI  24
BENSON         CLOUDY    34  28  80 N8        29.74R WCI  27
ORTONVILLE     CLOUDY    28  25  86 N10       29.75S WCI  19
MADISON        LGT SNOW  36  34  93 N9        29.74S VSB 1
WILLMAR        LGT SNOW  32  30  93 NW3       29.74R
$$
MNZ033>034-036-042>043-049>051-058-059-252100-
   Central Minnesota

CITY           SKY/WX    TMP DP  RH WIND       PRES   REMARKS
ST CLOUD       CLOUDY    35  29  78 S3        29.74R
SAUK CENTRE    CLOUDY    32  28  88 NW3       29.73R
PAYNESVILLE    CLOUDY    30  28  92 CALM      29.74R
AITKIN         CLOUDY    36  28  75 CALM      29.71R
PINE RIVER     CLOUDY    28  25  86 NW8       29.77R WCI  20
BRAINERD       CLOUDY    32  27  81 NW6       29.73R WCI  26
STAPLES        CLOUDY    28  27  93 NW6       29.74R WCI  22
LONG PRAIRIE   CLOUDY    32  28  86 NW6       29.72S WCI  26
LITTLE FALLS   CLOUDY    32  28  86 CALM      29.74R
LITCHFIELD     RAIN      34  34 100 CALM      29.74R
BUFFALO        LGT SNOW  32  30  93 CALM      29.76R VSB 1
MAPLE LAKE     LGT SNOW  33  32  96 CALM      29.75R VSB 1
$$
MNZ037-044-045-052-053-252100-
   East Central Minnesota

CITY           SKY/WX    TMP DP  RH WIND       PRES   REMARKS
PRINCETON      CLOUDY    34  30  86 CALM      29.75R FOG
MORA           CLOUDY    32  28  86 SW6       29.75S WCI  26
CAMBRIDGE      LGT SNOW  34  27  75 CALM      29.74R
RUSH CITY      CLOUDY    32  30  91 S3        29.75S
MOOSE LAKE     CLOUDY    32  28  86 W6        29.72R WCI  26
HINCKLEY       CLOUDY    32  30  93 CALM      29.75R FOG
CLOQUET        CLOUDY    32  27  80 W7        29.72R WCI  26
MCGREGOR       CLOUDY    32  28  86 W7        29.73R WCI  26
$$
MNZ071>073-080-081-089-090-097-098-252100-
   Southwest Minnesota

CITY           SKY/WX    TMP DP  RH WIND       PRES   REMARKS
MONTEVIDEO     LGT SNOW  32  32 100 N5        29.75R WCI  27
GRANITE FALLS  MIX PCPN  32  31  96 N3        29.75R
CANBY          LGT SNOW  32  31  96 N10       29.75R WCI  23
MARSHALL       CLOUDY    30  27  86 N12       29.72S WCI  21
REDWOOD FALLS  CLOUDY    33  30  88 N6        29.72R FOG     WCI  28
OLIVIA         LGT SNOW  30  30 100 N6        29.72S VSB 1   WCI  24
PIPESTONE      PTSUNNY   32  30  93 NE9       29.67R WCI  24
WINDOM         CLOUDY    36  28  75 CALM      29.68F
WORTHINGTON    MOSUNNY   36 -13  12 NE8       29.66F
JACKSON        PTSUNNY   36  30  80 CALM      29.68F
TRACY          CLOUDY    32  31  94 N8        29.71R FOG     WCI  25
SLAYTON        FAIR      31  29  92 NE7       29.69S WCI  25
$$
MNZ065>067-074>077-082>085-091>093-252100-
   South Central Minnesota

CITY           SKY/WX    TMP DP  RH WIND       PRES   REMARKS
MANKATO        CLOUDY    36  28  75 S3        29.73R
NEW ULM        CLOUDY    34  28  80 CALM      29.73R
ST JAMES       CLOUDY    37  30  75 CALM      29.72S
FAIRMONT       PTSUNNY   36  28  75 S6        29.70S
GLENCOE        LGT SNOW  33  32  94 CALM      29.73R
FARIBAULT      CLOUDY    36  30  80 S5        29.74R
OWATONNA       PTSUNNY   36  28  75 S8        29.73R
ALBERT LEA     PTSUNNY   37  30  75 S5        29.71S
$$
MNZ078>079-086>088-094>096-252100-
   Southeast Minnesota

CITY           SKY/WX    TMP DP  RH WIND       PRES   REMARKS
ROCHESTER      MOSUNNY   34  29  82 S8        29.75S WCI  27
RED WING       CLOUDY    36  30  80 S5        29.76S
STANTON        CLOUDY    36  30  79 S6        29.74R
DODGE CENTER   PTSUNNY   34  30  86 S9        29.73S WCI  26
WINONA         PTSUNNY   37  30  75 S5        29.79S
AUSTIN         PTSUNNY   34  28  80 S6        29.72S WCI  29
PRESTON        MOSUNNY   33  29  86 S9        29.75S WCI  25
$$
ABBREVIATIONS USED IN REMARKS
   TC - TEMPERATURES IN CELSIUS
  WCI - WIND CHILL INDEX
   HX - HEAT INDEX
  VSB - VISIBILITY
$$


USA.gov is the U.S. government's official web portal to all federal, state and local government web resources and services.